TimeMST,TemperatureF,Dew PointF,Humidity,Sea Level PressureIn,VisibilityMPH,Wind Direction,Wind SpeedMPH,Gust SpeedMPH,PrecipitationIn,Events,Conditions,WindDirDegrees,DateUTC
12:53 AM,28.0,14.0,56,30.11,10.0,WSW,18.4,-,N/A,,Clear,240,2013-01-06 07:53:00
1:53 AM,24.1,12.9,62,30.09,10.0,SSW,10.4,-,N/A,,Clear,200,2013-01-06 08:53:00
2:53 AM,30.0,12.9,49,30.06,10.0,SW,12.7,-,N/A,,Clear,230,2013-01-06 09:53:00
3:53 AM,28.9,12.9,51,30.04,10.0,SW,18.4,26.5,N/A,,Clear,230,2013-01-06 10:53:00
4:53 AM,30.9,12.9,47,30.02,10.0,WSW,24.2,31.1,N/A,,Clear,240,2013-01-06 11:53:00
5:53 AM,30.9,12.0,46,30.02,10.0,SW,11.5,-,N/A,,Clear,230,2013-01-06 12:53:00
6:53 AM,32.0,10.9,42,30.02,10.0,SW,10.4,20.7,N/A,,Clear,230,2013-01-06 13:53:00
7:53 AM,30.9,10.9,43,30.01,10.0,SW,19.6,25.3,N/A,,Clear,230,2013-01-06 14:53:00
8:53 AM,30.9,10.9,43,29.99,10.0,WSW,25.3,34.5,N/A,,Clear,240,2013-01-06 15:53:00
9:53 AM,33.1,10.9,40,29.98,10.0,SW,23.0,31.1,N/A,,Clear,230,2013-01-06 16:53:00
10:53 AM,35.1,10.9,37,29.97,10.0,WSW,21.9,32.2,N/A,,Clear,240,2013-01-06 17:53:00
11:53 AM,37.9,12.0,35,29.95,10.0,WSW,12.7,24.2,N/A,,Mostly Cloudy,250,2013-01-06 18:53:00
12:53 PM,39.0,12.0,33,29.92,10.0,WSW,18.4,-,N/A,,Scattered Clouds,240,2013-01-06 19:53:00
1:53 PM,37.9,12.9,36,29.92,10.0,WSW,19.6,24.2,N/A,,Partly Cloudy,240,2013-01-06 20:53:00
2:53 PM,39.0,14.0,36,29.91,10.0,WSW,18.4,-,N/A,,Partly Cloudy,240,2013-01-06 21:53:00
3:53 PM,39.0,14.0,36,29.91,10.0,WSW,19.6,-,N/A,,Scattered Clouds,240,2013-01-06 22:53:00
4:53 PM,37.0,14.0,39,29.92,10.0,WSW,17.3,-,N/A,,Scattered Clouds,240,2013-01-06 23:53:00
5:53 PM,37.0,14.0,39,29.92,10.0,WSW,19.6,-,N/A,,Mostly Cloudy,240,2013-01-07 00:53:00
6:53 PM,37.0,12.9,37,29.92,10.0,WSW,19.6,-,N/A,,Partly Cloudy,240,2013-01-07 01:53:00
7:53 PM,34.0,12.9,42,29.94,10.0,SW,13.8,-,N/A,,Partly Cloudy,230,2013-01-07 02:53:00
8:53 PM,30.9,14.0,50,29.95,10.0,WSW,17.3,-,N/A,,Clear,240,2013-01-07 03:53:00
9:53 PM,32.0,16.0,52,29.96,10.0,WSW,11.5,-,N/A,,Clear,240,2013-01-07 04:53:00
10:53 PM,30.0,16.0,56,29.97,10.0,WSW,9.2,-,N/A,,Scattered Clouds,240,2013-01-07 05:53:00
11:53 PM,30.9,16.0,54,29.96,10.0,SW,9.2,-,N/A,,Partly Cloudy,230,2013-01-07 06:53:00